User: anonymous   Login
Location: Brno
(49.2000°N, 16.6330°E)
Time: 09:57:32
(UTC+02:00)
Language:

BREEZE M DEB (TANK) - Orbit

View from above orbital plane
View from above orbital plane
View from above satellite
View from above satellite

Ground track
Ground track

The orbit data is extracted from the following two-line orbital elements,

1 28359U 04022B   16178.57655606  .00000911  00000-0  11041-3 0  9999
2 28359  49.5502  41.8187 4681290 285.7667  28.7741  6.18328122263254
Epoch (UTC): 26 June 2016 13:50:14
Eccentricity: 0.4681290
inclination: 49.5502°
perigee height: 291 km
apogee height: 12030 km
right ascension of ascending node: 41.8187°
argument of perigee: 285.7667°
revolutions per day: 6.18328122
mean anomaly at epoch: 28.7741°
orbit number at epoch: 26325

The dashed part of the orbit path shows where the satellite is in the earth's shadow,  

DLR